Home   Weather   Maidstone   Past weeks
Flag for United Kingdom

Past Weather in Maidstone, England, United Kingdom — Yesterday and Last 2 Weeks

Now
57 °F

Fog.


Feels Like: 57 °F
Forecast: 64 / 49 °F
Wind: 3 mph from North

Location: Biggin Hill Airport

Current Time: Sep 16, 2019 at 7:31:28 am

Latest Report: Sep 16, 2019 at 6:50 am


Visibility: 2 mi

Pressure: 30.15 "Hg

Humidity: 100%

Dew Point: 57 °F

Location of MaidstoneLocation

Past Weather in Maidstone — Graph

°F

Maidstone Temperature Yesterday

Maximum temperature yesterday: 75 °F (at 5:20 pm)
Minimum temperature yesterday: 63 °F (at 9:50 am)
Average temperature yesterday: 69 °F

High & Low Weather Summary for the Past Weeks

 TemperatureHumidityPressure
High75 °F (Sep 15, 5:20 pm)100% (Sep 4, 6:20 am)30.60 "Hg (Sep 4, 6:20 am)
Low32 °F (Sep 10, 6:50 am)38% (Sep 14, 3:50 pm)29.86 "Hg (Sep 9, 3:50 pm)
Average60 °F73%30.21 "Hg
* Reported Sep 1 8:20 am — Sep 16 6:20 am, Maidstone. Weather by CustomWeather, © 2019

Note: Actual official high and low records may vary slightly from our data, if they occured in-between our weather recording intervals... More about our weather records

Advertising

Maidstone Weather History for the Previous 24 Hours

Scroll right to see more
 ConditionsComfort  
Time TempWeatherWind HumidityBarometerVisibility
6:20 am
Mon, Sep 16
57 °FPassing clouds.3 mph100%30.15 "Hg3 mi
9:50 pm
Sun, Sep 15
63 °FClear.7 mph83%30.21 "Hg10 mi
9:20 pm64 °FClear.8 mph78%30.21 "Hg10 mi
8:50 pm64 °FClear.9 mph78%30.21 "Hg10 mi
8:20 pm64 °FClear.8 mph83%30.21 "Hg10 mi
7:50 pm66 °FClear.8 mph78%30.21 "Hg10 mi
7:20 pm68 °FClear.5 mph69%30.21 "Hg10 mi
6:50 pm72 °FSunny.3 mph61%30.21 "Hg10 mi
6:20 pm73 °FSunny.7 mph57%30.21 "Hg10 mi
5:50 pm73 °FPassing clouds.7 mph57%30.21 "HgN/A
5:20 pm75 °FPassing clouds.8 mph54%30.21 "HgN/A
4:50 pm73 °FPassing clouds.6 mph57%30.21 "HgN/A
4:20 pm73 °FPassing clouds.6 mph57%30.21 "HgN/A
3:50 pm73 °FPassing clouds.6 mph57%30.21 "HgN/A
3:20 pm73 °FPassing clouds.8 mph57%30.24 "HgN/A
2:50 pm72 °FPassing clouds.8 mph61%30.24 "HgN/A
2:20 pm72 °FPassing clouds.8 mph57%30.24 "HgN/A
1:50 pm72 °FPassing clouds.7 mph61%30.27 "HgN/A
1:20 pm70 °FPassing clouds.5 mph60%30.27 "HgN/A
12:50 pm70 °FPassing clouds.6 mph60%30.27 "HgN/A
12:20 pm70 °FPassing clouds.8 mph60%30.27 "HgN/A
11:50 am68 °FPassing clouds.6 mph64%30.27 "HgN/A
11:20 am68 °FPassing clouds.8 mph60%30.30 "HgN/A
10:50 am66 °FPassing clouds.7 mph56%30.30 "HgN/A
10:20 am64 °FPassing clouds.7 mph56%30.30 "HgN/A
9:50 am63 °FPassing clouds.6 mph56%30.30 "HgN/A
Weather by CustomWeather, © 2019

See weather overview